Time,TemperatureF,DewpointF,PressureIn,WindDirection,WindDirectionDegrees,WindSpeedMPH,WindSpeedGustMPH,Humidity,HourlyPrecipIn,Conditions,Clouds,dailyrainin,SoftwareType,DateUTC
2013-06-04 00:01:00,99.0,45.0,29.62,WSW,245,5.0,13.0,16,0.00,,,-99.99,,2013-06-04 00:01:00,
2013-06-04 00:11:00,99.0,45.0,29.62,WSW,245,5.0,13.0,16,0.00,,,-99.99,,2013-06-04 00:11:00,
2013-06-04 00:21:00,98.0,42.0,29.62,NNW,335,7.0,16.0,15,0.00,,,-99.99,,2013-06-04 00:21:00,
2013-06-04 00:32:00,98.0,42.0,29.62,West,262,7.0,14.0,15,0.00,,,-99.99,,2013-06-04 00:32:00,
2013-06-04 00:42:00,98.0,42.0,29.62,West,262,7.0,14.0,15,0.00,,,-99.99,,2013-06-04 00:42:00,
2013-06-04 00:52:00,98.0,42.0,29.62,East,91,7.0,19.0,15,0.00,,,-99.99,,2013-06-04 00:52:00,
2013-06-04 01:02:00,97.0,43.0,29.62,WNW,288,6.0,15.0,16,0.00,,,-99.99,,2013-06-04 01:02:00,
2013-06-04 01:11:00,97.0,43.0,29.62,WNW,288,6.0,15.0,16,0.00,,,-99.99,,2013-06-04 01:11:00,
2013-06-04 01:21:00,97.0,43.0,29.62,West,279,6.0,15.0,16,0.00,,,-99.99,,2013-06-04 01:21:00,
2013-06-04 01:32:00,96.0,44.0,29.62,West,281,4.0,14.0,17,0.00,,,-99.99,,2013-06-04 01:32:00,
2013-06-04 01:42:00,96.0,44.0,29.62,West,281,4.0,14.0,17,0.00,,,-99.99,,2013-06-04 01:42:00,
2013-06-04 01:52:00,95.0,43.0,29.62,WSW,256,4.0,14.0,17,0.00,,,-99.99,,2013-06-04 01:52:00,
2013-06-04 02:01:00,94.0,47.0,29.62,NE,34,5.0,16.0,20,0.00,,,-99.99,,2013-06-04 02:01:00,
2013-06-04 02:12:00,93.0,46.0,29.64,WNW,284,5.0,16.0,20,0.00,,,-99.99,,2013-06-04 02:12:00,
2013-06-04 02:21:00,93.0,46.0,29.64,WNW,284,5.0,16.0,20,0.00,,,-99.99,,2013-06-04 02:21:00,
2013-06-04 02:42:00,92.0,49.0,29.64,North,360,5.0,13.0,23,0.00,,,-99.99,,2013-06-04 02:42:00,
2013-06-04 02:52:00,91.0,49.0,29.64,SW,219,7.0,15.0,24,0.00,,,-99.99,,2013-06-04 02:52:00,
2013-06-04 03:01:00,89.0,52.0,29.64,NW,315,5.0,12.0,28,0.00,,,-99.99,,2013-06-04 03:01:00,
2013-06-04 03:11:00,87.0,54.0,29.65,WNW,301,7.0,19.0,32,0.00,,,-99.99,,2013-06-04 03:11:00,
2013-06-04 03:21:00,87.0,54.0,29.65,WNW,301,7.0,19.0,32,0.00,,,-99.99,,2013-06-04 03:21:00,
2013-06-04 03:32:00,86.0,54.0,29.65,NW,314,9.0,17.0,34,0.00,,,-99.99,,2013-06-04 03:32:00,
2013-06-04 03:43:00,86.0,54.0,29.65,NW,314,9.0,17.0,34,0.00,,,-99.99,,2013-06-04 03:43:00,
2013-06-04 03:53:00,85.0,54.0,29.66,West,269,8.0,18.0,35,0.00,,,-99.99,,2013-06-04 03:53:00,
2013-06-04 04:02:00,84.0,54.0,29.66,SW,232,7.0,18.0,36,0.00,,,-99.99,,2013-06-04 04:02:00,
2013-06-04 04:13:00,84.0,54.0,29.66,SW,232,7.0,18.0,36,0.00,,,-99.99,,2013-06-04 04:13:00,
2013-06-04 04:22:00,83.0,55.0,29.66,WNW,290,7.0,17.0,38,0.00,,,-99.99,,2013-06-04 04:22:00,
2013-06-04 04:33:00,82.0,55.0,29.67,West,281,7.0,20.0,40,0.00,,,-99.99,,2013-06-04 04:33:00,
2013-06-04 04:42:00,82.0,55.0,29.67,West,281,7.0,20.0,40,0.00,,,-99.99,,2013-06-04 04:42:00,
2013-06-04 04:53:00,82.0,55.0,29.67,WNW,298,8.0,17.0,40,0.00,,,-99.99,,2013-06-04 04:53:00,
2013-06-04 05:02:00,81.0,55.0,29.67,NW,308,8.0,17.0,41,0.00,,,-99.99,,2013-06-04 05:02:00,
2013-06-04 05:12:00,81.0,55.0,29.67,NW,308,8.0,17.0,41,0.00,,,-99.99,,2013-06-04 05:12:00,
2013-06-04 05:22:00,80.0,54.0,29.67,ENE,72,7.0,16.0,41,0.00,,,-99.99,,2013-06-04 05:22:00,
2013-06-04 05:32:00,80.0,55.0,29.68,WNW,290,5.0,14.0,42,0.00,,,-99.99,,2013-06-04 05:32:00,
2013-06-04 05:42:00,80.0,55.0,29.68,WNW,290,5.0,14.0,42,0.00,,,-99.99,,2013-06-04 05:42:00,
2013-06-04 05:52:00,79.0,54.0,29.68,WNW,293,5.0,12.0,42,0.00,,,-99.99,,2013-06-04 05:52:00,
2013-06-04 06:02:00,78.0,54.0,29.68,NNW,342,5.0,11.0,43,0.00,,,-99.99,,2013-06-04 06:02:00,
2013-06-04 06:12:00,78.0,54.0,29.68,NNW,342,5.0,11.0,43,0.00,,,-99.99,,2013-06-04 06:12:00,
2013-06-04 06:22:00,78.0,53.0,29.69,NNW,332,4.0,7.0,42,0.00,,,-99.99,,2013-06-04 06:22:00,
2013-06-04 06:32:00,79.0,53.0,29.69,North,6,1.0,8.0,40,0.00,,,-99.99,,2013-06-04 06:32:00,
2013-06-04 06:42:00,79.0,53.0,29.69,North,6,1.0,8.0,40,0.00,,,-99.99,,2013-06-04 06:42:00,
2013-06-04 06:52:00,78.0,54.0,29.69,WNW,290,4.0,13.0,43,0.00,,,-99.99,,2013-06-04 06:52:00,
2013-06-04 07:01:00,76.0,52.0,29.69,SE,141,3.0,12.0,44,0.00,,,-99.99,,2013-06-04 07:01:00,
2013-06-04 07:11:00,76.0,52.0,29.69,SE,141,3.0,12.0,44,0.00,,,-99.99,,2013-06-04 07:11:00,
2013-06-04 07:22:00,75.0,52.0,29.69,WSW,252,1.0,7.0,45,0.00,,,-99.99,,2013-06-04 07:22:00,
2013-06-04 07:32:00,75.0,52.0,29.69,NNW,340,2.0,9.0,45,0.00,,,-99.99,,2013-06-04 07:32:00,
2013-06-04 07:42:00,75.0,52.0,29.69,NNW,340,2.0,9.0,45,0.00,,,-99.99,,2013-06-04 07:42:00,
2013-06-04 07:52:00,74.0,52.0,29.69,WNW,282,2.0,8.0,46,0.00,,,-99.99,,2013-06-04 07:52:00,
2013-06-04 08:02:00,73.0,52.0,29.69,NNW,343,4.0,11.0,48,0.00,,,-99.99,,2013-06-04 08:02:00,
2013-06-04 08:11:00,73.0,52.0,29.70,WNW,287,5.0,11.0,47,0.00,,,-99.99,,2013-06-04 08:11:00,
2013-06-04 08:21:00,73.0,52.0,29.70,WNW,287,5.0,11.0,47,0.00,,,-99.99,,2013-06-04 08:21:00,
2013-06-04 08:32:00,73.0,52.0,29.69,NW,314,4.0,14.0,47,0.00,,,-99.99,,2013-06-04 08:32:00,
2013-06-04 08:41:00,73.0,52.0,29.69,NW,314,4.0,14.0,47,0.00,,,-99.99,,2013-06-04 08:41:00,
2013-06-04 08:52:00,73.0,51.0,29.69,West,264,5.0,12.0,46,0.00,,,-99.99,,2013-06-04 08:52:00,
2013-06-04 09:01:00,72.0,52.0,29.69,WNW,298,5.0,12.0,50,0.00,,,-99.99,,2013-06-04 09:01:00,
2013-06-04 09:12:00,72.0,52.0,29.69,WNW,298,5.0,12.0,50,0.00,,,-99.99,,2013-06-04 09:12:00,
2013-06-04 09:21:00,72.0,53.0,29.70,NNW,333,3.0,13.0,52,0.00,,,-99.99,,2013-06-04 09:21:00,
2013-06-04 09:32:00,72.0,52.0,29.69,NNE,30,4.0,8.0,49,0.00,,,-99.99,,2013-06-04 09:32:00,
2013-06-04 09:42:00,72.0,52.0,29.69,NNE,30,4.0,8.0,49,0.00,,,-99.99,,2013-06-04 09:42:00,
2013-06-04 09:53:00,71.0,53.0,29.69,WNW,284,4.0,8.0,53,0.00,,,-99.99,,2013-06-04 09:53:00,
2013-06-04 10:02:00,70.0,53.0,29.69,SSW,212,4.0,10.0,55,0.00,,,-99.99,,2013-06-04 10:02:00,
2013-06-04 10:12:00,70.0,53.0,29.69,SSW,212,4.0,10.0,55,0.00,,,-99.99,,2013-06-04 10:12:00,
2013-06-04 10:22:00,70.0,53.0,29.70,NNE,14,5.0,9.0,54,0.00,,,-99.99,,2013-06-04 10:22:00,
2013-06-04 10:32:00,70.0,54.0,29.70,NE,37,5.0,10.0,56,0.00,,,-99.99,,2013-06-04 10:32:00,
2013-06-04 10:42:00,70.0,53.0,29.70,WNW,285,4.0,10.0,55,0.00,,,-99.99,,2013-06-04 10:42:00,
2013-06-04 10:52:00,70.0,53.0,29.70,WNW,285,4.0,10.0,55,0.00,,,-99.99,,2013-06-04 10:52:00,
2013-06-04 11:02:00,70.0,54.0,29.70,WNW,290,5.0,12.0,56,0.00,,,-99.99,,2013-06-04 11:02:00,
2013-06-04 11:11:00,70.0,54.0,29.70,WNW,290,5.0,12.0,56,0.00,,,-99.99,,2013-06-04 11:11:00,
2013-06-04 11:22:00,70.0,54.0,29.70,NW,305,4.0,12.0,56,0.00,,,-99.99,,2013-06-04 11:22:00,
2013-06-04 11:31:00,69.0,54.0,29.70,NNW,328,4.0,11.0,59,0.00,,,-99.99,,2013-06-04 11:31:00,
2013-06-04 11:42:00,69.0,54.0,29.70,NNW,328,4.0,11.0,59,0.00,,,-99.99,,2013-06-04 11:42:00,
2013-06-04 11:52:00,69.0,54.0,29.71,West,277,5.0,11.0,58,0.00,,,-99.99,,2013-06-04 11:52:00,
2013-06-04 12:01:00,69.0,54.0,29.71,NW,319,4.0,9.0,58,0.00,,,-99.99,,2013-06-04 12:01:00,
2013-06-04 12:12:00,69.0,54.0,29.71,NW,319,4.0,9.0,58,0.00,,,-99.99,,2013-06-04 12:12:00,
2013-06-04 12:22:00,68.0,52.0,29.71,WNW,296,3.0,8.0,57,0.00,,,-99.99,,2013-06-04 12:22:00,
2013-06-04 12:32:00,68.0,53.0,29.71,NW,322,3.0,8.0,59,0.00,,,-99.99,,2013-06-04 12:32:00,
2013-06-04 12:42:00,68.0,53.0,29.71,NW,322,3.0,8.0,59,0.00,,,-99.99,,2013-06-04 12:42:00,
2013-06-04 12:52:00,68.0,53.0,29.72,West,263,3.0,8.0,58,0.00,,,-99.99,,2013-06-04 12:52:00,
2013-06-04 13:02:00,69.0,54.0,29.72,WNW,293,4.0,12.0,59,0.00,,,-99.99,,2013-06-04 13:02:00,
2013-06-04 13:11:00,68.0,54.0,29.72,WSW,257,2.0,16.0,61,0.00,,,-99.99,,2013-06-04 13:11:00,
2013-06-04 13:22:00,68.0,54.0,29.72,WSW,257,2.0,16.0,61,0.00,,,-99.99,,2013-06-04 13:22:00,
2013-06-04 13:32:00,69.0,55.0,29.72,South,181,3.0,11.0,60,0.00,,,-99.99,,2013-06-04 13:32:00,
2013-06-04 13:42:00,69.0,55.0,29.72,South,181,3.0,11.0,60,0.00,,,-99.99,,2013-06-04 13:42:00,
2013-06-04 13:52:00,70.0,54.0,29.73,West,281,3.0,12.0,56,0.00,,,-99.99,,2013-06-04 13:52:00,
2013-06-04 14:01:00,72.0,53.0,29.73,East,82,4.0,8.0,51,0.00,,,-99.99,,2013-06-04 14:01:00,
2013-06-04 14:11:00,72.0,53.0,29.73,East,82,4.0,8.0,51,0.00,,,-99.99,,2013-06-04 14:11:00,
2013-06-04 14:21:00,73.0,51.0,29.74,WNW,298,2.0,10.0,46,0.00,,,-99.99,,2013-06-04 14:21:00,
2013-06-04 14:32:00,74.0,53.0,29.74,NW,307,5.0,9.0,48,0.00,,,-99.99,,2013-06-04 14:32:00,
2013-06-04 14:42:00,74.0,53.0,29.74,NW,307,5.0,9.0,48,0.00,,,-99.99,,2013-06-04 14:42:00,
2013-06-04 14:52:00,73.0,54.0,29.74,WSW,256,7.0,15.0,52,0.00,,,-99.99,,2013-06-04 14:52:00,
2013-06-04 15:02:00,74.0,54.0,29.74,WNW,294,3.0,13.0,50,0.00,,,-99.99,,2013-06-04 15:02:00,
2013-06-04 15:11:00,76.0,54.0,29.74,NNE,26,4.0,12.0,47,0.00,,,-99.99,,2013-06-04 15:11:00,
2013-06-04 15:21:00,76.0,54.0,29.74,NNE,26,4.0,12.0,47,0.00,,,-99.99,,2013-06-04 15:21:00,
2013-06-04 15:33:00,78.0,52.0,29.75,SW,225,3.0,11.0,40,0.00,,,-99.99,,2013-06-04 15:33:00,
2013-06-04 15:42:00,78.0,52.0,29.75,SW,225,3.0,11.0,40,0.00,,,-99.99,,2013-06-04 15:42:00,
2013-06-04 15:53:00,80.0,52.0,29.75,WNW,288,3.0,8.0,38,0.00,,,-99.99,,2013-06-04 15:53:00,
2013-06-04 16:03:00,83.0,52.0,29.75,WSW,243,0.0,7.0,35,0.00,,,-99.99,,2013-06-04 16:03:00,
2013-06-04 16:12:00,84.0,49.0,29.76,NNW,335,5.0,10.0,30,0.00,,,-99.99,,2013-06-04 16:12:00,
2013-06-04 16:22:00,84.0,49.0,29.76,NNW,335,5.0,10.0,30,0.00,,,-99.99,,2013-06-04 16:22:00,
2013-06-04 16:32:00,84.0,49.0,29.76,SW,231,5.0,12.0,30,0.00,,,-99.99,,2013-06-04 16:32:00,
2013-06-04 16:42:00,84.0,49.0,29.76,SW,231,5.0,12.0,30,0.00,,,-99.99,,2013-06-04 16:42:00,
2013-06-04 16:52:00,85.0,48.0,29.76,NW,310,4.0,12.0,28,0.00,,,-99.99,,2013-06-04 16:52:00,
2013-06-04 17:02:00,86.0,47.0,29.77,North,11,4.0,10.0,26,0.00,,,-99.99,,2013-06-04 17:02:00,
2013-06-04 17:11:00,86.0,47.0,29.77,North,11,4.0,10.0,26,0.00,,,-99.99,,2013-06-04 17:11:00,
2013-06-04 17:22:00,87.0,46.0,29.77,West,266,4.0,11.0,24,0.00,,,-99.99,,2013-06-04 17:22:00,
2013-06-04 17:32:00,89.0,44.0,29.77,SSW,207,1.0,5.0,21,0.00,,,-99.99,,2013-06-04 17:32:00,
2013-06-04 17:42:00,89.0,44.0,29.77,SSW,207,1.0,5.0,21,0.00,,,-99.99,,2013-06-04 17:42:00,
2013-06-04 17:52:00,93.0,43.0,29.77,SSW,208,1.0,2.0,18,0.00,,,-99.99,,2013-06-04 17:52:00,
2013-06-04 18:01:00,94.0,47.0,29.77,SE,146,1.0,5.0,20,0.00,,,-99.99,,2013-06-04 18:01:00,
2013-06-04 18:12:00,94.0,44.0,29.77,SW,236,3.0,6.0,18,0.00,,,-99.99,,2013-06-04 18:12:00,
2013-06-04 18:22:00,94.0,44.0,29.77,SW,236,3.0,6.0,18,0.00,,,-99.99,,2013-06-04 18:22:00,
2013-06-04 18:32:00,95.0,43.0,29.77,SSW,204,0.0,3.0,17,0.00,,,-99.99,,2013-06-04 18:32:00,
2013-06-04 18:42:00,95.0,43.0,29.77,SSW,204,0.0,3.0,17,0.00,,,-99.99,,2013-06-04 18:42:00,
2013-06-04 18:52:00,95.0,45.0,29.77,WSW,243,0.0,5.0,18,0.00,,,-99.99,,2013-06-04 18:52:00,
2013-06-04 19:02:00,98.0,41.0,29.77,SW,229,1.0,3.0,14,0.00,,,-99.99,,2013-06-04 19:02:00,
2013-06-04 19:11:00,98.0,41.0,29.77,SW,229,1.0,3.0,14,0.00,,,-99.99,,2013-06-04 19:11:00,
2013-06-04 19:22:00,97.0,40.0,29.76,WNW,298,1.0,3.0,14,0.00,,,-99.99,,2013-06-04 19:22:00,
2013-06-04 19:32:00,97.0,38.0,29.76,SW,233,2.0,5.0,13,0.00,,,-99.99,,2013-06-04 19:32:00,
2013-06-04 19:42:00,97.0,38.0,29.76,SW,233,2.0,5.0,13,0.00,,,-99.99,,2013-06-04 19:42:00,
2013-06-04 19:52:00,99.0,37.0,29.76,West,262,2.0,4.0,12,0.00,,,-99.99,,2013-06-04 19:52:00,
2013-06-04 20:02:00,100.0,38.0,29.75,NNW,335,1.0,4.0,12,0.00,,,-99.99,,2013-06-04 20:02:00,
2013-06-04 20:11:00,100.0,38.0,29.75,NNW,335,1.0,4.0,12,0.00,,,-99.99,,2013-06-04 20:11:00,
2013-06-04 20:22:00,100.0,38.0,29.75,North,353,2.0,4.0,12,0.00,,,-99.99,,2013-06-04 20:22:00,
2013-06-04 20:31:00,100.0,42.0,29.74,NNW,335,3.0,7.0,14,0.00,,,-99.99,,2013-06-04 20:31:00,
2013-06-04 20:42:00,100.0,42.0,29.74,NNW,335,3.0,7.0,14,0.00,,,-99.99,,2013-06-04 20:42:00,
2013-06-04 20:52:00,99.0,43.0,29.74,NW,323,5.0,11.0,15,0.00,,,-99.99,,2013-06-04 20:52:00,
2013-06-04 21:01:00,98.0,42.0,29.74,West,268,5.0,10.0,15,0.00,,,-99.99,,2013-06-04 21:01:00,
2013-06-04 21:12:00,98.0,42.0,29.74,West,268,5.0,10.0,15,0.00,,,-99.99,,2013-06-04 21:12:00,
2013-06-04 21:22:00,98.0,41.0,29.73,WNW,283,3.0,12.0,14,0.00,,,-99.99,,2013-06-04 21:22:00,
2013-06-04 21:33:00,99.0,41.0,29.73,North,7,4.0,13.0,14,0.00,,,-99.99,,2013-06-04 21:33:00,
2013-06-04 21:42:00,99.0,41.0,29.73,North,7,4.0,13.0,14,0.00,,,-99.99,,2013-06-04 21:42:00,
2013-06-04 21:53:00,98.0,42.0,29.73,West,259,5.0,13.0,15,0.00,,,-99.99,,2013-06-04 21:53:00,
2013-06-04 22:02:00,98.0,42.0,29.72,East,82,4.0,11.0,15,0.00,,,-99.99,,2013-06-04 22:02:00,
2013-06-04 22:12:00,98.0,42.0,29.72,East,82,4.0,11.0,15,0.00,,,-99.99,,2013-06-04 22:12:00,
2013-06-04 22:22:00,98.0,46.0,29.72,West,266,5.0,15.0,17,0.00,,,-99.99,,2013-06-04 22:22:00,
2013-06-04 22:32:00,97.0,43.0,29.72,West,269,8.0,20.0,16,0.00,,,-99.99,,2013-06-04 22:32:00,
2013-06-04 22:41:00,97.0,43.0,29.72,West,269,8.0,20.0,16,0.00,,,-99.99,,2013-06-04 22:41:00,
2013-06-04 22:52:00,98.0,44.0,29.71,NW,325,8.0,17.0,16,0.00,,,-99.99,,2013-06-04 22:52:00,
2013-06-04 23:02:00,98.0,42.0,29.71,NNE,33,4.0,14.0,15,0.00,,,-99.99,,2013-06-04 23:02:00,
2013-06-04 23:11:00,98.0,42.0,29.71,NNE,33,4.0,14.0,15,0.00,,,-99.99,,2013-06-04 23:11:00,
2013-06-04 23:22:00,98.0,42.0,29.70,West,278,6.0,19.0,15,0.00,,,-99.99,,2013-06-04 23:22:00,
2013-06-04 23:32:00,98.0,44.0,29.70,NW,316,6.0,12.0,16,0.00,,,-99.99,,2013-06-04 23:32:00,
2013-06-04 23:42:00,98.0,44.0,29.70,NW,316,6.0,12.0,16,0.00,,,-99.99,,2013-06-04 23:42:00,
2013-06-04 23:52:00,97.0,43.0,29.70,NNW,328,10.0,18.0,16,0.00,,,-99.99,,2013-06-04 23:52:00,